CAPE
10 17 9 6 3 10 2 5 8 8 0 0 0 0 0 0 0 0 0 0 0 0 0 0 0 0 0 0 0 0 0 0 0 0 0 0 0 0 0 0 0 0 0 0 0
5 17 11 2 3 6 11 13 8 6 0 0 0 0 0 0 0 0 0 0 0 0 0 0 0 0 0 0 0 0 0 0 0 0 0 0 0 0 0 0 0 0 0 0 0
17 5 9 5 2 3 12 15 8 1 0 0 0 0 0 0 0 0 0 0 0 0 0 0 0 0 0 0 0 0 0 0 0 0 0 0 0 0 0 0 0 0 0 0 0
5 4 3 10 1 1 14 15 7 0 0 0 0 0 0 0 0 0 0 0 0 0 0 0 0 0 0 0 0 0 0 0 0 0 0 0 0 0 0 0 0 0 0 0 0
11 3 3 9 9 1 10 14 9 0 0 0 0 0 0 0 0 0 0 0 0 0 0 0 0 0 0 0 0 0 0 0 0 0 0 0 0 0 0 0 0 0 0 0 0
15 5 2 6 9 4 7 11 4 0 0 0 0 0 0 0 0 0 0 0 0 0 0 0 0 0 0 0 0 0 0 0 0 0 0 0 0 0 0 0 0 0 0 0 0
27 15 0 4 11 19 6 12 0 0 0 0 0 0 0 0 0 0 0 0 0 0 0 0 0 0 0 0 0 0 0 0 0 0 0 0 0 0 0 0 0 0 0 0 0
21 20 0 11 19 23 11 3 0 0 0 0 0 0 0 0 0 0 0 0 0 0 0 0 0 0 0 0 0 0 0 0 0 0 0 0 0 0 0 0 0 0 0 0 0
40 15 26 26 18 21 21 1 0 0 0 0 0 0 0 0 0 0 0 0 0 0 0 0 0 0 0 0 0 0 0 0 0 0 0 0 0 0 0 0 0 0 0 0 0
32 18 13 20 31 18 16 1 0 0 0 0 0 0 0 0 0 0 0 0 0 0 0 0 0 0 0 0 0 0 0 0 0 0 0 0 0 0 0 0 0 0 0 0 0
26 36 12 42 36 26 2 0 0 0 0 0 0 0 0 0 0 0 0 0 0 0 0 0 0 0 0 0 0 0 0 0 0 0 0 0 0 0 0 0 0 0 0 0 0
27 49 23 28 32 18 1 0 0 0 0 0 0 0 0 0 0 0 0 0 0 0 0 0 0 0 0 0 0 0 0 0 0 0 0 0 0 0 0 0 0 0 0 0 0
24 36 29 26 30 21 0 0 0 0 0 0 0 0 0 0 0 0 0 0 0 0 0 0 0 0 0 0 0 0 0 0 0 0 0 0 0 0 0 0 0 0 0 0 0
18 28 23 25 21 4 0 0 0 0 0 0 0 0 0 0 0 0 0 0 0 0 0 0 0 0 0 0 0 0 0 0 0 0 0 0 0 0 0 0 0 0 0 0 0
42 6 9 16 6 4 0 0 0 5 0 0 0 0 0 0 0 0 0 0 0 0 0 0 0 0 0 0 0 0 0 0 0 0 0 0 0 0 0 0 0 0 0 0 0
33 17 23 18 36 0 0 10 3 0 0 0 0 0 0 0 0 0 0 0 0 0 0 0 0 0 0 0 0 0 0 0 0 0 0 0 0 0 0 0 0 0 0 0 0
1 30 31 22 35 14 74 66 0 1 0 0 0 0 0 0 0 0 0 0 0 0 0 0 0 0 0 0 0 0 0 0 0 0 0 0 0 0 0 0 0 0 0 0 0
2 23 1 22 12 92 105 0 0 0 0 0 0 0 0 0 0 0 0 0 0 0 0 0 0 0 0 0 0 0 0 0 0 0 0 0 0 0 0 0 0 0 0 0 0
1 1 6 3 1 92 55 0 0 0 0 0 0 0 0 0 0 0 0 0 0 0 0 0 0 0 0 0 0 0 0 0 0 0 0 0 0 0 0 0 0 0 0 0 0
0 2 1 1 1 58 40 0 0 0 0 0 0 0 0 0 0 0 0 0 0 0 0 0 0 0 0 0 0 0 0 0 0 0 0 0 0 0 0 0 0 0 0 0 0
0 0 0 0 1 32 2 0 0 0 1 0 0 0 0 0 0 0 0 0 0 0 0 0 0 0 0 0 0 0 0 0 0 0 0 0 0 0 0 0 0 0 0 0 0
0 0 3 0 3 1 3 0 0 0 9 0 0 0 0 0 0 0 0 0 0 0 0 0 0 0 0 0 0 0 0 0 0 0 0 0 0 0 0 0 0 0 0 0 0
0 0 10 0 0 0 1 0 7 27 2 6 0 0 0 0 0 0 0 0 0 0 0 0 0 0 0 0 0 0 0 0 0 0 0 0 0 0 0 0 0 0 0 0 0
4 0 1 2 0 0 0 2 1 4 10 38 1 0 0 0 0 0 0 0 0 0 0 0 0 0 0 0 0 0 0 0 0 0 0 0 0 0 0 0 0 0 0 0 0
0 0 0 0 0 0 0 0 0 0 1 39 15 0 0 0 0 0 0 0 0 0 0 0 0 0 0 0 0 0 0 0 0 0 0 0 0 0 0 0 0 0 0 0 0
0 0 0 0 0 0 0 0 0 0 0 1 0 0 0 0 0 0 0 0 0 0 0 0 0 0 0 0 0 0 0 0 0 0 0 0 0 0 0 0 0 0 0 0 0
0 0 0 1 7 0 0 0 0 0 0 0 0 4 0 0 0 0 0 0 0 0 0 0 0 0 0 0 0 0 0 0 0 0 0 0 0 0 0 0 0 0 0 0 0
CIN
-7 -11 -17 -31 -20 -3 -4 -8 -5 -3 0 0 0 0 0 0 0 0 0 0 0 0 0 0 0 0 0 0 0 0 0 0 0 0 0 0 0 0 0 0 0 0 0 0 0
-15 -14 -12 -26 -23 -11 -5 -5 -5 -5 0 0 0 0 0 0 0 0 0 0 0 0 0 0 0 0 0 0 0 0 0 0 0 0 0 0 0 0 0 0 0 0 0 0 0
-21 -11 -11 -14 -7 -15 -5 -4 -5 -3 0 0 0 0 0 0 0 0 0 0 0 0 0 0 0 0 0 0 0 0 0 0 0 0 0 0 0 0 0 0 0 0 0 0 0
-15 -16 -15 -11 -8 -5 -5 -6 -4 0 0 0 0 0 0 0 0 0 0 0 0 0 0 0 0 0 0 0 0 0 0 0 0 0 0 0 0 0 0 0 0 0 0 0 0
-11 -12 -8 -14 -10 -6 -8 -5 -3 0 0 0 0 0 0 0 0 0 0 0 0 0 0 0 0 0 0 0 0 0 0 0 0 0 0 0 0 0 0 0 0 0 0 0 0
-23 -11 -8 -12 -12 -8 -7 -3 -2 0 0 0 0 0 0 0 0 0 0 0 0 0 0 0 0 0 0 0 0 0 0 0 0 0 0 0 0 0 0 0 0 0 0 0 0
-8 -19 0 -10 -11 -5 -35 -158 0 0 0 0 0 0 0 0 0 0 0 0 0 0 0 0 0 0 0 0 0 0 0 0 0 0 0 0 0 0 0 0 0 0 0 0 0
-8 -8 -17 -8 -146 -103 -133 -130 0 0 0 0 0 0 0 0 0 0 0 0 0 0 0 0 0 0 0 0 0 0 0 0 0 0 0 0 0 0 0 0 0 0 0 0 0
-21 -16 -103 -127 -123 -103 -122 -62 0 0 0 0 0 0 0 0 0 0 0 0 0 0 0 0 0 0 0 0 0 0 0 0 0 0 0 0 0 0 0 0 0 0 0 0 0
-3 -13 -69 -108 -118 -100 -121 -151 0 0 0 0 0 0 0 0 0 0 0 0 0 0 0 0 0 0 0 0 0 0 0 0 0 0 0 0 0 0 0 0 0 0 0 0 0
-5 -5 -55 -103 -123 -92 -154 -1 0 0 0 0 0 0 0 0 0 0 0 0 0 0 0 0 0 0 0 0 0 0 0 0 0 0 0 0 0 0 0 0 0 0 0 0 0
-2 -6 -35 -68 -97 -103 -105 0 0 0 0 0 0 0 0 0 0 0 0 0 0 0 0 0 0 0 0 0 0 0 0 0 0 0 0 0 0 0 0 0 0 0 0 0 0
0 -6 -17 -53 -71 -85 0 0 0 0 0 0 0 0 0 0 0 0 0 0 0 0 0 0 0 0 0 0 0 0 0 0 0 0 0 0 0 0 0 0 0 0 0 0 0
-2 -2 -11 -49 -3 0 0 0 0 0 0 0 0 0 0 0 0 0 0 0 0 0 0 0 0 0 0 0 0 0 0 0 0 0 0 0 0 0 0 0 0 0 0 0 0
-1 -3 -10 -72 -2 0 0 -1 0 -64 0 0 0 0 0 0 0 0 0 0 0 0 0 0 0 0 0 0 0 0 0 0 0 0 0 0 0 0 0 0 0 0 0 0 0
-1 -1 -11 -5 -5 0 -21 -89 -75 0 0 0 0 0 0 0 0 0 0 0 0 0 0 0 0 0 0 0 0 0 0 0 0 0 0 0 0 0 0 0 0 0 0 0 0
-1 -4 -5 -12 -4 -68 -37 -57 -1 -1 0 0 0 0 0 0 0 0 0 0 0 0 0 0 0 0 0 0 0 0 0 0 0 0 0 0 0 0 0 0 0 0 0 0 0
0 -7 -3 -34 -53 -29 -23 -6 0 0 0 0 0 0 0 0 0 0 0 0 0 0 0 0 0 0 0 0 0 0 0 0 0 0 0 0 0 0 0 0 0 0 0 0 0
0 0 -18 0 0 -27 -27 0 0 0 0 0 0 0 0 0 0 0 0 0 0 0 0 0 0 0 0 0 0 0 0 0 0 0 0 0 0 0 0 0 0 0 0 0 0
0 0 0 0 0 -9 -4 0 0 0 0 0 0 0 0 0 0 0 0 0 0 0 0 0 0 0 0 0 0 0 0 0 0 0 0 0 0 0 0 0 0 0 0 0 0
0 0 0 0 0 -1 -1 0 0 0 -6 0 0 0 0 0 0 0 0 0 0 0 0 0 0 0 0 0 0 0 0 0 0 0 0 0 0 0 0 0 0 0 0 0 0
0 0 0 0 -7 0 -2 0 0 -13 -48 0 0 0 0 0 0 0 0 0 0 0 0 0 0 0 0 0 0 0 0 0 0 0 0 0 0 0 0 0 0 0 0 0 0
0 0 -1 0 0 0 -8 0 -18 -13 -15 -62 0 0 0 0 0 0 0 0 0 0 0 0 0 0 0 0 0 0 0 0 0 0 0 0 0 0 0 0 0 0 0 0 0
-8 -1 0 0 0 0 0 -1 -8 -10 -16 -28 -12 0 0 0 0 0 0 0 0 0 0 0 0 0 0 0 0 0 0 0 0 0 0 0 0 0 0 0 0 0 0 0 0
0 0 0 0 0 0 0 0 0 0 0 -2 -15 0 0 0 0 0 0 0 0 0 0 0 0 0 0 0 0 0 0 0 0 0 0 0 0 0 0 0 0 0 0 0 0
0 0 0 -6 -1 0 0 0 0 0 0 -3 0 0 0 0 0 0 0 0 0 0 0 0 0 0 0 0 0 0 0 0 0 0 0 0 0 0 0 0 0 0 0 0 0
0 0 0 0 -2 -1 0 0 0 0 0 0 0 -14 0 0 0 0 0 0 0 0 0 0 0 0 0 0 0 0 0 0 0 0 0 0 0 0 0 0 0 0 0 0 0
Wind_Speed
20 19 19 23 25 24 24 23 23 20 20 23 24 25 24 23 23 23 21 18 16 14 17 23 26 27 27 25 24 23 21 23 15 19 7 5 8 17 16 13 14 15 11 21 24
24 22 21 23 26 25 27 23 22 22 18 18 21 20 22 22 25 33 21 20 9 10 21 24 31 27 26 26 26 25 25 24 20 18 5 6 11 13 16 14 17 14 11 12 23
25 24 27 27 25 28 28 26 23 22 20 17 16 16 17 20 26 35 29 31 12 3 20 26 30 24 28 26 27 28 26 27 16 14 7 9 16 16 16 19 24 26 22 18 25
28 27 27 32 27 24 29 27 25 22 20 19 17 15 14 21 27 25 25 15 10 8 19 19 27 27 28 27 29 28 27 21 18 17 14 10 13 17 20 17 10 12 14 17 24
30 29 29 33 28 25 27 28 26 23 21 19 17 16 18 23 29 20 18 18 11 8 14 19 24 28 31 30 28 30 24 20 17 16 15 13 15 17 18 13 13 10 5 19 25
31 28 30 30 29 26 23 26 25 24 21 19 17 16 24 28 22 18 16 16 16 10 12 19 25 33 29 30 29 29 23 19 18 17 18 16 18 17 17 12 15 14 20 20 25
27 24 30 27 27 26 24 25 23 22 22 19 18 19 28 28 17 17 16 19 18 14 15 28 27 32 26 29 25 22 22 20 19 19 19 18 20 23 15 15 19 19 23 26 27
30 26 20 30 28 26 23 21 22 20 21 19 19 24 27 20 16 16 16 18 18 18 16 29 24 27 25 22 26 28 26 25 24 21 21 21 22 22 15 16 20 19 21 20 22
26 22 22 28 26 24 22 23 21 17 19 17 20 26 28 18 22 18 17 18 18 17 15 23 23 30 28 30 31 33 30 30 27 26 22 24 23 19 18 20 23 22 16 12 17
27 25 21 18 25 22 21 21 18 16 19 19 26 26 25 27 19 17 19 17 19 15 14 24 29 33 37 36 35 34 33 32 30 28 27 27 26 19 18 20 21 18 17 15 17
28 29 21 19 24 24 23 20 20 25 30 27 25 24 15 18 15 19 18 19 18 18 25 27 32 40 39 37 36 31 37 28 28 25 29 33 30 30 23 22 21 21 15 15 13
27 23 21 21 20 26 26 28 29 24 29 33 26 28 17 20 21 19 18 20 21 25 18 27 41 38 37 37 37 34 34 34 25 24 28 31 36 33 33 26 23 24 20 17 16
26 23 21 22 21 26 36 31 29 17 27 32 26 26 23 21 23 22 21 22 23 25 23 31 33 34 35 36 37 35 33 33 31 26 29 29 36 35 30 25 26 27 26 22 20
27 24 24 21 24 29 37 34 23 22 28 31 32 27 24 21 24 21 25 21 23 27 24 31 30 33 33 37 34 37 27 26 27 28 35 28 37 30 28 28 27 26 25 23 18
23 25 25 23 23 34 29 28 23 21 38 26 30 19 22 26 18 26 22 22 26 23 24 27 31 34 37 36 31 32 24 25 25 29 30 30 32 31 22 27 26 24 22 20 17
19 27 27 27 22 30 28 23 22 32 38 25 26 31 27 28 24 22 25 22 19 21 24 28 26 29 32 28 29 23 23 23 25 29 39 34 34 35 32 31 24 19 19 18 16
19 25 24 27 24 25 25 24 33 42 27 29 30 30 30 29 25 26 29 29 26 27 32 26 30 28 24 26 25 28 28 33 36 38 41 31 36 39 27 25 21 18 17 15 12
16 21 23 26 24 25 25 30 43 43 40 24 27 30 33 28 29 27 29 33 32 26 25 34 37 33 31 32 35 34 32 34 39 38 39 31 40 37 28 25 18 15 14 14 11
15 21 24 23 23 29 29 41 44 36 38 27 23 31 34 33 30 29 32 34 30 28 28 32 32 28 28 27 26 36 41 29 31 29 36 36 38 33 28 26 21 18 16 15 13
20 20 25 26 22 28 33 47 42 31 32 28 32 32 37 37 34 34 33 35 31 28 24 25 31 29 29 27 29 31 26 35 33 40 42 38 38 39 31 27 23 20 18 15 12
20 23 24 24 23 31 44 43 39 27 26 34 34 32 36 38 38 39 37 29 31 28 25 24 25 31 28 36 36 31 34 32 32 34 40 42 41 32 33 26 23 19 17 14 11
21 31 23 22 33 38 46 40 32 32 27 31 31 31 33 33 37 38 42 36 26 27 32 26 24 29 33 28 27 32 35 33 38 41 39 36 41 26 25 17 17 17 15 12 11
23 22 19 27 39 36 37 45 41 31 34 32 33 30 30 31 34 37 37 32 28 28 30 29 30 33 32 30 30 36 36 36 36 32 40 43 45 30 26 20 17 15 13 11 11
20 26 23 24 27 30 39 46 48 34 35 32 30 29 30 32 31 33 33 31 29 31 30 25 34 38 43 38 28 37 35 35 35 42 42 42 43 33 27 23 18 16 15 14 14
23 27 24 29 30 29 27 39 51 43 36 34 35 35 32 35 35 33 30 30 30 32 30 32 43 40 47 41 33 34 36 37 40 40 41 45 43 39 30 26 22 19 17 17 17
25 24 24 23 23 27 30 29 44 48 39 40 42 36 35 35 36 37 30 30 31 30 31 31 39 40 51 45 41 44 40 38 38 41 42 44 45 35 29 25 23 21 20 20 21
19 19 23 24 25 26 31 27 27 33 41 40 40 38 40 37 28 27 25 27 27 29 31 33 35 35 46 36 39 49 46 39 40 41 37 45 38 36 32 29 27 25 24 24 23
Wind_Direction
246 242 239 237 242 241 241 240 241 243 248 239 242 247 249 253 256 251 267 270 261 257 264 254 240 252 240 239 238 239 246 248 257 251 262 261 261 233 235 242 234 232 236 98 113
244 241 239 235 237 239 238 239 241 242 243 241 244 247 248 251 251 246 261 266 269 261 250 237 234 247 241 237 236 235 240 243 248 251 249 251 251 246 237 243 228 239 244 70 116
242 240 236 233 233 233 236 238 239 240 241 242 240 242 244 244 253 246 254 249 266 255 244 237 237 246 240 235 233 232 236 238 251 253 251 245 243 238 238 230 208 192 146 108 132
240 238 234 229 231 232 234 235 236 237 239 240 238 240 238 242 246 252 255 237 242 253 250 243 235 239 236 234 231 233 236 243 245 246 244 245 244 241 231 239 261 251 111 119 143
238 235 232 227 230 231 234 234 234 234 237 238 237 235 240 247 244 265 254 238 234 236 245 241 234 232 233 232 230 230 235 239 246 242 242 244 242 243 240 252 254 261 69 132 157
236 234 231 228 230 231 231 232 233 231 234 235 235 233 242 246 256 267 259 235 242 238 243 239 236 224 236 232 228 232 234 235 241 242 243 243 242 246 246 253 251 254 236 143 164
235 234 231 228 229 229 227 229 230 230 231 234 234 236 242 245 267 261 254 240 244 240 237 232 231 225 236 231 230 228 229 233 238 240 244 245 249 243 251 256 252 248 235 220 185
234 231 221 225 224 225 224 226 228 228 230 231 235 239 246 258 262 255 250 241 244 243 252 227 237 231 233 236 228 226 231 230 236 240 246 244 249 246 253 257 256 264 256 256 251
226 218 219 221 220 220 220 221 225 226 229 229 236 240 243 256 247 249 245 236 233 241 249 229 233 230 229 225 224 227 230 231 236 242 246 243 250 250 258 260 258 260 271 278 271
220 216 213 194 215 213 213 214 218 222 228 232 243 240 246 243 243 242 241 231 234 228 239 230 228 226 224 225 223 225 232 231 236 241 244 245 249 255 262 264 263 266 270 276 276
215 213 201 191 209 207 202 203 213 227 222 230 237 240 245 242 241 238 235 229 234 231 234 229 227 225 224 228 231 233 233 238 241 247 246 245 251 253 261 265 265 263 271 276 282
212 200 192 194 191 205 206 218 217 236 222 234 241 235 253 240 236 230 228 232 230 229 229 231 228 227 228 230 232 239 237 235 243 247 249 250 250 254 255 260 263 263 266 272 277
213 199 193 195 194 208 214 221 222 214 229 233 238 234 239 238 237 225 226 240 232 228 227 231 232 233 230 230 232 236 236 236 243 248 253 255 254 254 258 259 263 262 265 274 278
215 200 193 192 206 212 217 222 232 230 232 232 231 239 234 239 239 231 227 241 235 229 231 238 234 230 229 231 233 235 244 241 241 245 249 251 253 258 254 255 261 264 267 273 280
206 195 185 184 218 211 214 223 230 233 229 233 225 236 231 232 232 229 232 241 232 227 233 236 230 228 231 232 235 239 241 244 245 247 252 251 255 259 253 256 262 265 269 275 283
198 199 187 204 226 213 218 220 223 226 232 233 226 224 221 231 236 225 228 243 240 234 240 239 241 237 238 239 237 235 237 246 251 251 249 249 251 256 256 259 263 268 270 275 283
225 188 194 208 216 203 207 213 218 225 231 231 226 221 217 226 229 225 221 230 230 231 231 239 235 240 239 232 234 236 233 242 245 245 248 253 251 254 264 269 263 266 269 275 284
226 193 212 219 220 205 205 211 222 225 225 239 227 222 222 219 231 228 224 229 237 238 232 233 238 233 235 236 236 234 233 242 244 247 250 256 254 259 265 269 266 270 269 273 280
223 214 213 223 225 208 201 215 225 228 225 228 220 220 225 223 230 229 230 231 233 234 240 236 242 239 238 244 237 237 237 250 251 258 254 254 259 267 265 266 264 263 265 268 273
223 218 219 230 227 205 206 223 224 234 221 225 231 228 222 222 228 229 229 235 236 231 246 247 242 244 243 245 246 244 242 243 250 249 253 257 259 259 262 262 262 261 261 263 265
231 224 235 236 226 210 218 224 224 241 227 228 234 233 230 227 231 233 235 244 232 229 239 252 249 244 242 241 239 243 241 249 251 253 255 257 261 268 267 262 259 261 259 255 252
235 230 240 234 219 220 226 226 230 232 239 237 241 239 235 230 233 236 238 242 233 228 232 245 250 249 245 253 254 250 249 245 249 252 256 263 262 276 279 270 260 259 254 251 249
231 236 245 229 223 226 230 227 230 234 236 238 238 241 242 232 239 240 241 246 244 233 233 236 246 247 251 255 254 249 249 249 253 261 256 257 261 271 279 274 267 259 253 245 244
239 232 239 234 236 234 225 227 227 236 239 239 242 242 239 236 243 243 242 246 245 240 243 237 249 248 248 254 254 253 252 252 254 255 259 260 265 270 272 269 266 260 254 250 248
244 237 239 229 232 234 236 230 227 232 239 240 241 239 239 240 240 247 242 247 248 246 244 243 250 250 254 256 259 259 255 253 253 256 258 262 264 267 269 267 264 259 257 254 252
238 241 241 242 236 234 234 240 231 231 237 239 241 239 242 245 244 244 243 246 247 248 244 246 254 253 255 258 260 258 259 256 254 255 260 265 268 271 268 267 264 258 256 258 254
253 257 245 239 237 238 235 240 240 236 241 245 245 244 242 246 253 255 250 249 255 247 243 245 251 256 257 259 259 259 256 258 258 257 257 261 254 275 271 264 261 261 260 260 255